Theta_e
297 296 295 295 296 297 297 297 298 300 300 300 302 304 307 309 311 312 309 303 304 307 307 307 308 310 310 307 305 306 307 307 307 307 309 309 308 309 310 311 311 311 310 310 313 318 318 319 322 323 322 321 319 319 320 320 323 326 324 321 320 322 323 317 315 317 319 319 319 320 321 324 328 327 323 324 324 323 327 331 331 327 323 327 332 328 325
297 296 295 295 296 297 297 297 298 299 299 300 301 303 306 308 310 311 307 304 307 307 306 308 310 313 313 310 308 309 308 307 308 308 309 310 310 311 311 311 311 311 311 312 314 317 319 319 319 321 323 322 319 318 320 323 327 328 326 323 319 318 320 321 319 317 318 319 318 321 323 326 328 325 321 322 324 322 321 325 330 327 321 325 332 327 324
297 295 295 296 297 297 296 297 298 298 299 300 301 303 305 307 310 310 308 307 308 309 310 312 312 314 315 315 316 315 311 310 309 309 310 309 310 312 311 309 310 311 313 315 315 317 320 320 318 322 324 321 318 317 319 323 327 327 324 322 323 322 321 325 326 321 321 323 324 325 325 325 325 322 320 322 323 323 320 322 331 329 321 322 329 326 323
296 295 295 296 297 296 296 297 298 299 299 300 301 303 305 307 309 310 310 310 309 309 310 311 312 314 315 316 317 315 314 313 309 309 310 308 309 311 310 309 312 314 315 317 317 317 318 320 321 323 324 322 318 317 318 320 324 326 321 318 325 327 320 321 326 326 325 327 326 324 324 326 325 321 319 320 319 320 324 327 330 328 323 324 326 323 322
296 295 295 296 297 297 297 297 298 299 299 300 302 303 306 308 310 311 311 311 311 310 310 310 313 314 313 315 315 313 315 314 310 310 310 308 309 310 309 310 312 313 314 316 318 318 319 320 320 321 322 321 319 317 317 318 321 323 320 317 325 330 322 318 320 320 320 320 319 318 319 320 320 318 317 317 317 320 327 328 324 322 324 326 324 321 322
295 294 295 296 297 297 297 297 298 299 299 301 302 304 307 309 309 310 311 311 311 311 310 310 313 313 312 314 314 313 315 314 311 311 311 309 310 311 312 312 312 312 314 319 318 318 321 321 318 320 321 322 323 321 318 318 317 320 322 319 323 329 324 318 317 317 316 316 316 316 316 315 315 316 316 316 317 321 324 321 318 321 327 328 323 320 319
295 294 295 296 296 296 297 297 298 299 300 301 303 305 307 308 308 309 310 311 311 311 310 309 312 313 313 315 315 313 315 314 311 311 313 313 311 312 314 313 313 314 318 323 320 317 321 320 316 319 320 320 324 324 320 318 317 321 328 323 319 324 322 317 317 317 315 315 315 315 315 315 315 314 314 315 316 317 318 318 317 320 324 323 319 316 313
294 295 296 296 296 296 297 298 298 299 300 302 304 305 307 308 309 309 310 311 311 311 310 310 313 314 313 314 316 314 314 313 312 310 312 313 311 312 314 312 311 312 314 319 318 315 321 322 318 320 322 320 323 323 319 319 319 322 328 325 319 321 321 319 319 320 317 314 314 314 314 315 314 314 313 314 315 315 316 316 316 317 318 316 314 313 311
294 295 296 296 296 297 297 298 298 299 301 303 304 306 307 308 310 310 311 312 311 311 310 310 313 314 312 312 313 314 313 311 311 310 309 310 312 313 314 313 313 312 312 315 314 312 316 318 315 318 321 319 319 319 315 318 324 326 325 324 324 324 321 319 321 322 318 315 314 315 315 316 315 314 313 313 314 314 314 314 314 315 315 314 315 314 310
294 294 296 296 296 297 298 298 299 300 302 303 304 306 307 308 310 311 311 312 312 312 311 309 312 315 315 314 311 311 312 311 313 314 309 308 310 311 312 314 315 315 314 313 312 310 311 311 309 311 315 314 314 315 314 316 324 327 324 323 325 325 321 319 321 323 319 316 316 317 319 322 319 314 312 313 313 313 312 312 312 312 313 315 315 313 309
294 294 295 296 296 297 298 299 299 300 302 303 304 306 306 307 310 310 311 313 313 310 308 309 313 315 315 314 311 311 313 313 315 316 312 309 310 310 310 312 315 316 313 310 310 310 309 311 311 312 314 314 313 313 313 314 316 320 324 324 321 319 320 322 322 322 319 316 317 318 320 321 317 312 311 312 312 311 312 311 309 309 311 311 310 308 306
295 294 295 295 296 298 298 299 300 301 302 303 304 305 305 306 309 309 309 313 315 310 309 311 312 311 311 311 311 312 313 312 311 311 311 310 310 310 309 311 315 315 311 309 311 311 310 311 313 314 313 313 312 312 313 316 314 313 316 320 320 318 320 321 321 319 318 317 318 321 321 317 312 310 310 310 309 309 309 309 308 308 308 307 307 306 305
295 294 295 296 297 298 298 299 300 301 303 304 305 306 306 305 309 309 307 312 315 312 312 312 308 307 310 310 311 311 309 308 308 309 309 309 308 309 309 310 313 312 309 310 310 310 312 314 315 314 314 316 317 315 314 316 315 313 314 316 317 319 320 319 318 317 317 318 318 319 317 312 310 311 310 310 310 310 310 310 309 308 307 306 306 305 303
295 295 296 296 297 298 298 299 299 300 302 305 306 306 306 306 308 309 307 310 313 310 309 311 309 309 310 310 310 310 308 308 309 308 308 308 307 308 308 309 309 308 308 310 309 309 313 317 317 315 315 319 321 318 316 316 315 315 317 315 315 317 319 319 318 316 316 316 315 314 313 312 311 311 310 310 310 310 311 311 309 308 307 306 304 303 303
295 295 296 297 297 298 299 299 299 300 302 305 306 306 306 306 308 309 307 308 311 310 308 308 308 307 307 307 308 311 311 311 311 309 309 309 307 307 308 307 308 308 307 309 313 316 317 317 316 316 315 318 318 315 316 318 316 313 313 314 315 318 319 320 319 316 314 314 313 312 314 314 312 310 309 309 309 309 310 310 309 308 307 305 304 303 303
295 295 296 297 298 299 299 298 299 300 301 304 306 306 306 307 308 308 307 306 309 310 306 305 305 304 304 305 306 308 311 313 314 314 313 310 307 307 308 306 307 309 308 309 314 319 319 316 317 318 317 316 315 314 315 320 321 317 314 314 315 316 317 319 318 316 314 315 315 314 314 313 311 309 308 308 309 309 309 311 311 308 307 306 305 304 303
294 294 296 297 299 299 299 299 299 300 302 304 306 306 305 307 307 307 307 306 307 308 305 305 306 305 307 308 307 307 308 310 312 313 313 310 307 307 307 307 307 309 309 312 316 319 318 316 317 318 315 312 313 314 315 319 322 320 318 319 318 317 317 319 318 316 315 315 314 313 312 310 309 308 307 307 308 308 311 315 313 308 307 307 305 304 304
294 294 296 298 299 299 298 299 300 300 302 305 306 306 306 308 308 307 307 308 307 306 304 306 306 305 307 308 307 306 307 309 309 310 311 309 308 308 308 308 309 309 308 315 321 321 317 314 315 318 315 311 313 314 315 317 318 315 314 317 317 316 315 316 316 314 313 313 312 310 309 309 307 307 307 307 308 310 313 315 311 306 306 307 306 305 305
294 295 297 298 299 299 298 299 300 301 304 305 306 306 307 308 308 307 308 309 307 304 304 306 306 306 306 307 307 308 309 310 309 313 318 313 309 309 308 308 310 309 308 315 320 318 315 312 312 317 318 314 313 314 314 315 315 312 311 313 314 314 314 313 313 313 311 310 310 310 310 308 306 306 306 307 310 313 312 309 307 305 305 305 305 305 305
294 295 297 299 299 298 298 299 300 302 305 305 305 306 307 307 308 307 307 308 307 304 304 305 305 305 306 307 308 308 309 309 309 315 321 315 308 309 310 310 311 309 310 316 316 313 315 315 311 313 317 315 312 311 312 311 309 309 312 312 311 311 312 312 311 311 311 311 310 312 312 307 304 306 308 308 310 310 307 305 305 305 304 303 303 303 303
294 295 298 299 299 298 299 300 301 303 305 305 305 306 306 306 307 307 306 307 306 304 304 305 305 306 306 306 307 308 309 310 309 311 314 311 308 311 313 314 314 311 312 317 314 310 313 316 312 310 313 313 311 311 312 311 308 306 308 309 308 308 310 311 309 308 311 313 311 310 308 305 304 307 308 307 307 307 305 304 303 303 303 302 302 301 301
294 296 298 299 299 298 299 300 302 304 305 305 306 307 306 306 307 307 306 306 305 303 303 304 304 306 306 306 307 308 308 310 309 309 309 308 308 310 311 311 311 309 310 314 315 311 312 314 313 312 312 312 312 310 310 312 311 308 307 309 309 307 308 308 307 305 307 309 307 305 305 304 305 306 306 306 306 306 306 305 303 302 302 302 302 301 301
294 296 299 300 299 298 299 300 302 304 305 306 306 307 307 307 307 306 306 305 304 303 303 304 304 306 306 306 307 307 308 309 309 309 309 309 309 309 309 309 310 310 309 311 313 313 313 313 312 313 313 312 311 311 309 310 310 308 306 307 307 305 305 306 305 304 305 305 304 304 304 305 305 305 305 305 305 305 305 304 303 302 302 302 302 301 301
294 296 299 300 298 299 300 300 302 304 305 306 307 308 307 306 305 305 304 304 303 303 304 304 304 306 307 307 308 309 309 310 310 309 309 309 310 310 310 310 310 310 309 310 310 310 311 310 308 311 311 308 309 312 312 309 307 306 306 307 307 305 305 305 305 305 305 305 304 304 304 304 304 304 304 304 304 304 304 303 303 302 302 302 302 301 301
295 297 299 300 298 299 300 301 302 305 306 307 307 307 306 305 305 305 304 304 304 304 304 304 304 305 306 308 309 310 309 309 309 309 309 309 309 310 310 310 310 310 309 310 310 309 309 309 309 312 310 307 308 311 309 306 306 306 307 308 307 305 305 305 304 304 305 305 304 303 303 304 304 304 303 303 303 303 302 302 302 302 302 301 301 300 299
295 297 299 299 298 299 300 301 303 305 306 307 307 307 307 306 305 305 305 304 304 304 304 305 305 305 307 308 309 309 309 309 309 309 309 309 309 310 310 310 310 309 308 309 309 307 306 307 310 312 310 307 308 309 307 306 307 307 306 306 305 305 305 304 303 304 304 303 303 303 303 303 303 303 303 302 302 302 302 301 301 301 300 300 299 299 299
296 298 299 299 298 300 300 301 303 305 306 307 306 306 307 306 306 305 304 304 305 305 304 305 305 306 308 308 309 309 308 309 309 308 309 309 309 309 310 309 308 308 307 308 308 306 305 306 308 308 307 306 306 306 305 304 305 307 306 305 304 304 304 303 303 304 304 303 303 303 303 303 302 302 302 302 302 302 301 300 300 299 299 299 299 299 300
296 298 299 298 299 300 300 301 303 305 306 307 306 306 306 306 306 305 304 304 306 306 305 305 305 306 307 307 308 309 309 308 308 307 307 308 308 308 308 308 307 308 307 307 307 306 306 307 306 305 305 306 305 304 304 304 306 307 306 304 304 304 303 302 304 304 303 303 303 302 303 303 302 302 302 301 301 301 300 300 299 299 300 300 300 300 300
297 299 298 298 299 300 300 302 304 306 307 307 306 306 306 306 306 305 304 305 305 305 305 306 306 306 306 306 307 309 309 309 308 307 307 307 307 307 308 307 307 307 307 306 306 305 304 305 305 304 305 305 305 306 306 306 306 305 304 303 303 303 302 303 303 303 302 302 302 302 302 302 301 301 301 300 301 300 300 300 300 300 300 300 300 300 300
297 298 297 298 299 300 300 302 304 305 307 307 306 306 306 305 305 305 305 305 305 305 306 307 307 305 304 305 307 309 310 309 307 306 306 307 306 306 307 307 307 306 306 305 305 304 303 304 304 304 304 304 306 307 307 305 304 303 302 303 304 303 303 303 302 302 302 302 302 302 302 301 301 301 301 301 301 301 300 300 300 300 299 299 298 298 298
296 296 297 298 299 300 301 302 303 305 306 306 306 306 305 305 305 305 305 305 306 306 305 306 306 305 304 304 305 306 307 308 307 306 306 306 306 306 306 306 306 305 305 305 304 303 304 303 303 304 304 304 305 306 305 304 305 303 302 302 304 303 302 302 301 301 301 301 301 302 301 301 301 301 301 301 301 301 301 301 300 299 298 297 297 297 297
295 296 297 299 299 300 301 302 303 304 306 306 306 306 305 305 305 305 305 305 306 306 305 305 304 304 304 305 305 305 306 306 306 305 305 305 305 306 305 305 305 305 304 304 304 303 303 303 303 304 304 303 304 306 306 305 304 303 302 303 303 302 302 301 301 301 301 301 301 301 302 302 301 300 300 300 300 300 300 300 299 298 298 297 297 297 297
295 296 297 299 300 300 301 302 303 305 305 306 306 306 305 305 305 305 305 305 305 305 305 304 304 304 304 304 305 304 305 305 305 305 305 305 305 305 305 304 304 304 304 304 304 303 303 303 302 303 303 303 304 305 305 303 302 302 302 303 303 302 301 301 301 301 301 301 301 301 301 301 300 299 299 299 298 299 299 299 299 299 298 298 298 298 297
295 296 297 299 300 300 300 301 304 305 305 306 306 305 304 305 306 305 305 305 305 305 304 305 306 306 305 305 305 305 304 305 304 304 304 304 304 304 304 304 304 304 303 303 303 303 303 302 302 303 303 302 303 304 303 302 301 302 302 302 302 302 302 302 302 301 301 301 301 300 300 300 299 299 299 299 298 298 298 298 298 298 298 298 298 298 298
295 296 298 299 300 300 300 302 304 305 305 306 305 304 305 305 305 305 305 304 304 304 304 304 306 308 307 306 306 305 304 304 304 304 304 304 304 304 303 303 303 303 303 303 303 302 302 302 302 302 301 301 303 304 302 301 300 301 303 303 302 302 302 302 302 301 301 301 300 300 300 300 300 299 299 298 298 298 298 298 298 298 298 299 299 298 299
296 297 298 300 300 300 300 303 305 305 304 304 304 304 305 305 305 305 305 304 304 304 303 303 306 308 308 307 304 304 303 303 303 303 303 303 303 303 303 304 304 303 302 302 302 302 302 302 303 303 301 302 303 302 301 301 301 302 303 303 302 302 302 302 302 301 301 300 300 300 300 300 300 300 299 299 299 299 299 299 299 299 299 299 299 299 298
296 298 299 300 301 301 303 305 305 304 303 303 303 304 304 305 305 305 304 304 305 304 304 305 307 307 306 304 303 303 304 304 303 303 303 303 303 302 303 305 305 304 304 304 303 302 302 302 304 305 304 303 302 301 301 302 302 302 303 303 302 301 302 301 302 301 301 301 301 301 300 300 300 300 300 300 299 300 299 299 299 299 299 299 299 299 298
297 298 299 301 302 304 305 305 304 302 301 302 302 303 304 304 305 305 304 304 305 304 304 306 306 304 303 304 305 304 304 303 303 303 303 303 303 303 303 303 304 305 306 305 303 302 303 304 305 305 302 300 301 302 302 302 302 302 302 302 302 302 302 302 302 302 301 301 301 301 301 301 300 300 300 300 300 300 300 300 300 300 299 299 299 299 299
298 300 301 303 304 305 305 304 302 300 301 302 303 303 303 304 305 304 303 303 304 304 304 305 304 303 304 306 306 304 303 303 304 305 305 304 304 304 304 304 304 305 306 304 302 303 304 305 306 305 301 299 300 302 302 302 302 302 302 302 302 302 302 301 301 301 301 301 301 301 301 301 300 300 300 300 300 300 300 300 300 300 300 299 299 299 299
302 303 304 304 304 305 304 303 301 301 302 303 303 303 303 303 304 303 303 304 304 304 304 304 304 303 305 305 305 305 304 304 306 307 305 304 304 304 303 303 303 305 305 303 301 303 304 304 305 305 302 300 300 301 302 302 303 302 302 302 302 302 301 301 300 300 300 300 300 301 300 300 300 300 300 300 300 300 300 300 300 300 300 299 299 299 299
304 304 304 303 304 304 303 301 301 303 303 303 303 303 303 303 302 302 304 306 306 304 303 304 304 304 304 305 305 305 304 304 304 304 304 303 303 303 303 302 302 304 304 302 301 304 306 305 304 304 303 301 301 302 302 301 302 302 302 302 301 300 300 300 300 300 300 300 300 300 300 300 300 300 300 300 300 300 300 300 300 300 300 300 300 299 299
303 303 302 302 303 303 302 302 303 302 302 303 303 303 303 302 302 302 303 305 305 304 304 304 305 304 304 305 304 304 305 304 302 303 305 304 302 302 304 303 303 304 304 301 302 306 307 304 303 304 303 301 301 302 302 302 302 302 301 301 301 300 300 300 300 300 300 300 300 300 300 300 300 300 300 300 300 300 300 300 300 300 300 300 299 299 299
302 301 301 302 303 303 303 302 301 300 302 304 304 303 302 303 303 303 303 303 303 304 304 304 304 304 304 304 303 304 304 303 302 303 304 303 301 303 305 305 304 303 302 301 303 306 306 304 304 305 302 300 301 302 303 302 302 302 301 301 301 300 300 300 300 300 301 301 301 300 300 300 300 300 300 300 300 300 300 300 300 300 300 300 299 299 300
301 302 302 303 302 302 302 301 300 300 301 303 303 303 303 303 303 305 306 304 303 304 304 304 304 305 304 303 303 303 303 302 302 302 301 300 301 304 306 304 302 300 300 302 304 305 304 305 305 302 300 300 301 302 303 303 302 302 301 301 300 300 300 300 300 301 301 301 301 301 300 300 300 300 300 300 300 300 300 300 300 300 300 300 300 300 300
302 302 302 302 301 300 300 300 300 300 301 303 305 308 309 307 306 309 310 306 303 304 305 304 304 305 303 303 303 303 302 303 304 302 300 301 303 304 303 303 302 301 302 304 304 303 304 304 302 299 299 301 301 302 303 303 302 301 301 301 301 301 301 301 301 301 301 301 301 300 300 300 300 300 300 300 300 300 300 300 300 300 299 299 300 300 300
302 301 300 301 301 300 299 300 301 302 302 302 303 306 307 305 305 307 307 304 303 305 305 304 304 304 302 302 303 302 301 303 303 302 302 304 305 302 300 300 301 303 303 303 303 306 309 306 300 298 300 301 301 302 302 302 301 301 301 301 301 301 301 300 300 300 300 300 300 300 300 300 300 299 300 300 300 299 299 299 299 299 299 299 299 299 300
301 300 299 300 301 300 299 300 302 302 301 301 301 302 303 303 302 303 304 304 304 305 304 303 303 303 302 302 303 302 301 303 303 301 301 304 304 301 300 302 303 304 302 301 304 310 312 305 299 299 301 301 301 302 301 301 300 300 300 300 301 301 300 300 300 300 300 300 300 300 300 300 300 299 299 299 299 299 299 299 299 299 299 299 299 299 300
300 299 299 300 300 300 300 301 301 300 299 300 301 301 302 302 302 303 304 304 304 304 304 303 304 304 303 302 302 302 301 301 302 301 301 302 302 301 302 304 304 303 303 306 311 315 311 302 299 300 301 301 301 301 301 300 300 300 300 300 300 300 300 300 300 300 299 300 299 299 299 299 299 299 299 299 299 299 299 299 299 299 299 299 299 299 299
300 300 300 299 299 299 299 299 300 300 300 300 300 300 301 302 302 303 304 304 304 305 304 303 304 305 303 302 304 304 302 301 302 303 303 303 303 303 303 304 302 302 306 311 312 311 306 301 301 301 301 300 301 301 300 300 300 300 300 300 300 300 300 300 299 299 299 299 299 299 299 299 299 299 299 299 299 299 299 299 298 299 299 299 299 299 299
300 301 301 300 299 300 299 298 300 302 302 300 299 300 301 301 301 302 304 304 303 304 303 303 303 303 302 302 305 305 303 302 302 303 303 305 304 302 301 303 306 307 309 308 306 303 302 302 302 301 300 301 301 301 300 300 300 300 300 300 300 300 300 300 299 299 299 299 299 299 299 299 299 299 299 299 299 299 299 298 298 298 299 299 299 299 299
300 300 300 299 300 301 300 299 301 303 303 301 300 301 301 301 301 303 304 303 303 304 303 302 302 303 305 305 305 303 301 301 302 302 304 305 304 302 304 308 311 309 306 303 302 302 303 303 302 301 301 301 301 301 300 300 300 300 300 300 300 300 300 300 299 299 299 299 299 299 299 299 299 299 299 299 299 299 299 299 298 298 299 299 299 299 299
299 300 300 299 300 300 300 300 300 301 301 302 302 302 302 302 302 303 304 303 304 304 302 301 303 307 307 305 302 301 301 302 302 302 303 303 301 302 308 312 310 304 301 301 302 303 303 302 302 302 302 301 301 301 300 300 300 300 300 300 300 300 300 300 299 299 299 299 299 299 299 299 299 299 299 299 299 299 299 299 299 299 299 299 299 299 299
Wind_Speed
19 17 13 9 8 10 12 10 6 5 5 5 4 3 3 2 2 3 8 14 15 8 1 1 0 1 4 6 7 6 5 4 4 8 8 4 3 3 3 2 2 2 2 3 3 3 4 5 3 3 3 3 2 9 11 5 1 4 3 2 1 2 3 3 1 3 3 5 4 5 6 9 8 4 3 2 0 3 5 5 3 4 3 2 3 2 1
20 16 9 7 8 11 11 7 4 5 5 5 5 4 3 2 3 4 11 15 8 1 1 2 0 2 4 5 6 6 5 5 5 5 4 3 2 2 3 2 2 2 2 4 4 3 4 5 4 3 4 1 7 13 13 4 1 3 2 4 2 1 1 3 3 1 3 4 3 5 6 5 4 3 3 3 2 4 4 2 4 4 3 3 5 2 1
20 14 6 6 9 10 10 6 3 4 3 2 3 4 3 1 3 5 13 16 7 3 2 2 0 2 3 3 4 5 4 6 9 8 3 4 1 3 2 2 1 3 4 5 6 6 5 3 2 3 3 2 5 13 14 7 4 5 5 6 5 3 2 3 5 4 3 3 2 1 1 2 3 3 5 6 4 4 4 3 4 3 2 3 4 4 4
18 11 6 6 8 9 8 4 3 4 2 2 2 3 1 1 1 4 9 12 10 8 5 1 1 2 1 2 3 2 2 4 6 6 1 4 3 3 2 1 3 5 6 6 7 9 7 4 3 2 3 1 3 10 13 9 7 8 10 9 6 5 4 3 5 5 5 4 2 1 2 3 3 4 7 7 4 3 4 4 4 5 4 2 0 6 9
14 9 7 6 7 9 7 4 4 3 2 1 2 4 2 0 1 2 4 6 7 7 6 2 2 2 0 1 3 3 4 2 1 1 1 3 4 4 3 5 4 3 5 6 4 6 6 6 5 3 3 1 2 9 12 11 11 8 8 8 4 5 4 4 7 7 3 3 5 6 7 7 5 4 6 7 6 6 6 4 2 6 7 1 2 9 11
12 9 7 5 7 8 5 3 4 3 2 2 3 3 3 2 1 2 3 2 3 3 4 4 5 4 2 1 3 3 2 1 1 2 2 4 6 4 4 7 5 2 4 5 3 4 5 6 4 2 3 2 2 7 8 9 13 8 6 8 5 6 3 3 6 9 8 7 7 9 12 10 9 9 8 9 10 10 8 4 1 2 5 6 9 10 8
12 8 5 5 7 7 5 4 3 3 2 5 6 3 3 1 1 1 3 0 3 4 4 5 5 5 4 2 3 3 1 3 1 2 2 4 6 5 4 6 7 5 5 6 3 2 3 3 2 1 3 3 2 3 3 6 11 8 5 5 4 5 3 2 5 9 9 8 6 7 12 11 10 12 10 10 11 12 11 7 4 6 5 8 13 12 7
11 6 4 6 7 6 5 3 2 2 2 7 7 3 2 1 1 0 1 2 3 4 3 3 3 3 4 3 4 2 2 4 2 2 3 2 3 5 6 5 6 7 8 8 4 2 5 5 2 3 3 2 1 1 1 2 6 7 3 3 4 4 3 1 3 7 6 7 6 7 11 12 12 11 10 9 9 9 9 7 6 8 8 9 13 11 6
9 4 4 6 6 6 5 2 1 1 5 7 5 3 3 1 2 3 2 2 2 2 2 3 4 0 2 4 3 1 1 2 3 4 6 4 4 4 7 7 6 7 9 9 4 2 5 7 6 5 5 4 3 2 1 2 1 4 3 2 3 4 4 0 3 5 2 2 4 7 9 12 12 10 10 9 7 6 5 4 4 4 7 11 11 6 3
9 5 4 5 5 5 5 2 1 5 7 7 6 4 3 2 1 0 1 1 2 2 1 2 2 2 3 3 1 1 1 1 3 4 8 8 7 9 10 8 5 6 7 7 3 1 4 7 6 6 11 14 13 11 8 6 4 2 2 3 2 4 6 3 2 4 1 3 1 3 5 7 6 5 6 5 3 5 5 5 6 4 4 8 6 3 5
10 7 4 4 4 4 4 3 2 7 8 7 7 4 2 1 0 0 1 0 2 2 1 1 2 1 2 4 1 3 3 3 4 5 3 6 6 10 13 11 7 4 3 4 3 4 7 12 14 17 22 24 21 18 17 14 9 3 3 2 3 4 7 4 2 4 4 4 2 4 3 2 1 3 3 2 3 7 8 6 6 6 4 5 6 6 7
12 8 5 4 3 3 4 3 2 8 10 9 7 5 2 1 1 2 1 0 3 1 1 2 4 2 3 6 3 3 5 6 6 8 7 3 5 10 12 10 6 2 2 3 4 4 7 12 16 18 20 20 19 20 19 14 11 9 6 6 5 5 5 4 2 3 4 1 3 3 2 2 1 2 4 6 8 11 13 10 8 8 8 9 10 8 7
13 8 3 3 3 3 3 3 0 6 11 11 8 6 5 4 2 2 1 0 2 1 1 3 3 1 5 7 5 4 6 9 10 11 10 6 5 7 7 7 7 6 4 3 4 5 6 5 7 7 7 8 10 13 13 10 10 11 9 6 6 6 4 3 3 2 3 2 2 1 2 1 2 2 3 5 5 6 8 9 8 7 6 7 8 8 9
12 5 2 2 2 2 2 2 1 3 8 10 8 7 8 8 4 2 2 1 3 4 2 2 3 3 8 7 5 5 6 7 8 9 8 6 6 6 7 9 10 9 6 3 4 6 5 3 4 4 4 5 5 5 5 6 7 9 8 6 4 6 5 3 3 1 2 3 2 2 2 1 1 1 0 1 1 2 1 4 4 3 4 7 8 9 9
11 4 3 3 2 1 1 1 1 0 4 9 11 11 11 10 6 4 3 1 2 3 2 3 3 0 4 5 5 5 4 4 4 5 4 5 6 8 9 10 9 8 6 5 4 4 3 3 4 2 1 1 1 1 2 3 4 6 7 6 5 5 4 4 3 1 2 4 3 2 2 2 2 2 1 2 3 3 2 3 2 2 4 9 11 9 10
10 5 4 3 2 1 1 1 1 1 4 9 12 12 11 10 8 7 5 2 1 2 6 7 4 2 6 6 6 6 4 2 2 3 4 4 3 6 9 7 7 7 7 5 4 4 4 3 3 3 2 3 3 1 1 1 3 5 6 7 9 7 4 5 5 2 2 4 3 2 2 2 2 2 2 5 5 2 2 2 2 0 4 11 12 11 12
9 5 6 4 2 2 1 0 2 3 5 9 11 11 10 9 9 7 5 3 1 2 7 7 3 6 7 5 5 5 4 3 4 3 1 2 1 4 7 6 6 6 6 4 3 4 4 3 3 3 1 2 3 3 1 2 2 4 6 6 7 6 4 4 4 3 3 3 2 1 1 1 1 1 2 5 4 1 1 1 1 2 6 11 13 12 13
8 5 6 4 3 3 1 1 3 4 7 10 13 11 9 9 8 6 4 3 3 4 9 9 7 8 7 4 4 4 3 3 4 4 2 1 2 2 4 4 4 4 4 3 2 3 4 2 2 4 2 1 1 3 1 2 2 1 3 3 4 4 3 3 3 4 3 3 3 1 1 0 1 2 4 4 1 2 1 1 3 6 9 11 12 11 11
6 6 7 5 5 3 2 3 4 6 9 12 12 9 8 9 8 6 4 2 2 3 9 10 10 10 9 6 7 7 5 5 4 4 3 1 1 3 4 4 3 2 2 3 3 2 3 1 1 3 3 1 1 2 2 1 1 1 1 2 2 2 2 2 2 2 2 3 3 1 0 0 1 2 3 2 1 2 2 4 9 13 13 10 10 10 10
5 6 7 6 5 3 3 5 6 8 12 12 9 7 8 8 7 5 2 1 2 4 9 11 10 10 9 7 7 8 6 5 5 4 3 2 3 5 5 2 1 1 3 3 2 1 2 2 0 1 3 1 1 3 2 1 1 1 0 1 1 1 2 2 2 2 3 3 3 2 2 1 2 2 1 2 0 4 9 13 14 15 15 13 13 13 13
4 6 7 6 5 4 5 6 6 10 12 9 5 4 6 6 4 4 3 2 3 3 7 10 9 9 9 7 7 6 5 5 5 5 6 5 5 4 3 4 3 1 1 2 2 1 2 3 1 1 3 1 1 2 3 3 2 2 1 3 1 1 1 2 1 1 2 3 2 2 1 1 0 3 3 4 8 15 18 18 16 14 15 16 16 16 16
4 6 7 6 5 5 6 5 7 9 8 4 1 3 6 4 3 4 4 2 0 2 5 8 9 9 8 7 6 6 5 5 5 6 8 8 4 2 4 6 5 3 3 4 4 1 1 2 2 2 3 2 1 2 3 3 1 2 3 3 2 1 4 5 3 2 3 4 3 3 5 8 10 13 14 16 18 19 19 19 18 16 16 18 20 20 20
3 6 7 6 5 6 6 5 6 6 4 1 2 5 7 6 5 7 8 6 5 4 4 5 7 8 8 8 7 6 6 5 4 4 5 6 4 3 4 5 5 3 3 3 4 4 3 3 3 3 2 2 3 3 3 3 2 0 3 3 2 3 6 6 5 5 6 8 8 7 10 14 18 20 20 20 21 19 17 18 20 18 18 19 21 21 20
2 6 7 6 5 6 6 6 6 6 3 2 4 7 10 10 11 12 10 6 5 5 4 4 6 7 7 8 8 7 6 4 3 1 3 5 4 3 4 5 5 5 5 5 6 8 7 4 2 3 3 1 2 3 3 2 1 2 3 3 1 1 4 5 4 4 4 5 5 6 11 16 20 22 21 21 20 19 18 20 21 21 21 20 20 20 20
2 7 7 6 6 6 6 7 7 6 5 5 7 9 11 12 12 11 9 6 5 5 3 3 6 7 6 6 7 8 8 7 5 3 1 3 4 6 7 7 6 6 8 9 11 12 9 4 2 4 3 1 2 2 2 2 2 3 3 1 1 3 7 7 4 3 4 6 8 11 15 18 20 22 22 22 22 21 20 22 23 23 22 21 20 20 21
4 7 7 6 6 7 7 7 7 7 7 9 10 10 11 12 11 9 8 9 8 6 3 2 6 8 8 9 10 11 12 12 11 10 9 7 5 7 11 12 11 12 14 14 14 14 11 5 3 3 2 2 3 3 2 3 3 3 2 1 3 6 5 4 5 7 6 7 11 14 15 14 15 19 22 22 23 23 22 22 23 24 24 23 22 21 21
5 7 7 7 7 7 7 7 7 7 10 12 12 11 12 12 10 9 11 11 7 5 2 2 6 9 10 10 11 11 10 10 10 11 11 11 10 11 14 16 18 20 20 18 15 15 11 6 4 3 3 5 7 5 3 4 5 4 3 2 4 6 5 5 8 7 3 4 8 10 9 8 11 18 22 22 22 24 24 24 24 25 25 24 22 21 19
5 7 7 8 8 8 7 7 7 9 11 12 11 11 12 11 8 9 10 7 5 6 6 6 7 9 9 9 9 10 10 9 9 11 12 12 14 15 17 19 21 23 22 19 13 9 7 5 4 3 4 7 7 4 2 4 5 4 2 3 2 6 7 6 5 5 7 11 13 13 13 13 15 21 23 22 22 24 25 25 25 24 23 22 21 19 17
6 8 8 8 9 8 7 7 8 10 12 12 10 10 11 10 8 8 8 7 9 12 13 10 9 7 6 6 6 9 9 9 12 15 16 18 20 21 21 23 24 24 24 22 16 9 7 7 6 5 5 6 4 2 2 3 3 2 3 3 8 9 9 9 12 14 14 16 19 21 23 22 21 23 23 21 21 22 24 24 23 22 21 19 18 17 16
7 8 8 9 9 8 7 8 9 10 12 11 10 9 9 8 8 8 8 10 13 14 12 9 6 5 7 10 12 13 11 10 14 19 21 22 24 25 25 26 26 25 24 22 17 10 7 7 7 8 9 7 5 2 2 3 2 2 3 10 16 15 13 17 21 21 19 20 24 27 29 27 24 23 21 19 19 20 22 22 22 22 20 19 19 19 17
8 8 9 10 10 8 8 8 7 9 11 10 8 6 5 5 6 9 10 11 14 15 13 10 7 6 9 12 16 18 17 15 17 21 23 24 24 25 25 25 25 24 23 21 17 10 6 6 6 7 9 10 7 3 2 3 3 1 4 15 21 21 20 22 24 25 26 28 30 30 29 27 25 22 20 19 19 20 22 23 23 22 21 20 20 20 19
8 9 9 10 9 8 8 7 6 7 9 8 6 6 7 6 7 10 12 13 14 14 12 8 5 3 3 6 12 17 20 19 19 21 22 22 22 23 24 23 23 21 20 18 13 8 6 7 10 11 11 10 8 4 3 4 3 3 11 20 24 25 26 27 27 29 30 31 32 29 25 23 23 22 21 21 20 22 24 25 23 22 20 19 18 18 17
8 9 10 10 9 8 8 7 7 7 7 7 7 9 10 8 9 12 13 14 13 10 8 5 3 1 1 3 8 13 15 16 17 17 16 15 17 19 19 18 17 16 14 11 8 5 6 9 12 12 11 10 8 5 3 4 4 11 20 27 27 27 28 28 29 29 29 29 29 27 25 24 24 24 24 23 23 24 24 24 22 20 18 16 16 15 14
9 10 10 11 10 9 8 8 8 7 7 8 9 10 9 8 9 13 14 12 10 8 6 4 3 2 1 2 4 7 9 11 12 11 9 9 13 15 13 12 12 12 12 11 10 8 7 8 10 9 7 7 8 6 2 3 9 19 27 28 28 29 29 27 28 28 26 25 26 27 28 28 26 25 25 24 23 22 22 21 20 18 16 15 13 11 10
10 11 12 13 12 11 10 9 8 7 8 9 10 10 10 9 10 13 12 9 7 6 4 3 4 3 2 2 2 3 7 9 9 8 8 9 13 13 11 9 9 8 8 9 8 6 4 6 7 5 3 3 4 3 2 7 15 23 27 27 28 29 27 26 26 26 24 24 26 28 28 27 26 26 25 24 23 22 21 19 17 16 14 13 11 8 7
11 13 14 15 14 12 11 9 7 6 8 11 12 11 11 11 11 11 10 8 5 4 3 3 3 3 3 2 1 3 7 8 8 9 10 10 10 11 10 8 6 5 6 7 6 4 4 5 4 2 1 3 3 4 11 18 23 26 28 29 28 27 26 25 26 26 25 25 27 27 26 26 26 26 25 24 23 22 20 18 16 14 13 11 9 7 7
12 14 16 16 15 13 10 8 6 7 9 12 12 11 11 11 10 9 8 6 5 4 5 5 3 2 3 3 2 3 5 4 3 5 7 6 6 8 9 7 4 3 5 6 4 4 6 7 5 3 2 2 7 15 22 28 29 28 30 31 28 25 26 27 27 26 25 25 24 25 25 25 25 24 24 23 22 20 18 17 16 14 12 10 8 8 8
14 15 16 16 13 10 8 7 8 10 12 13 12 8 7 8 8 6 5 5 5 5 5 5 4 3 4 4 4 3 3 1 2 4 4 4 4 4 5 5 3 2 3 2 3 4 6 5 4 3 3 3 12 23 27 28 29 30 31 30 28 26 27 28 27 27 26 25 25 26 26 25 24 24 22 21 19 18 16 14 13 12 11 9 7 7 7
15 15 14 12 9 7 7 8 10 11 12 12 9 5 3 4 4 2 2 3 4 5 4 4 4 4 5 5 4 3 4 3 4 3 2 3 3 1 1 2 3 3 3 1 2 3 4 2 3 3 3 2 10 21 26 26 27 28 29 28 27 26 27 28 26 25 25 25 25 25 25 23 23 23 21 19 17 15 13 11 10 10 9 8 6 5 6
14 14 12 10 9 9 10 11 11 10 10 9 6 3 3 3 2 1 1 2 2 2 3 4 4 6 9 10 6 4 5 5 5 4 3 3 3 3 3 2 2 3 3 1 1 2 3 1 2 3 2 4 11 21 26 25 25 26 27 27 27 26 27 27 24 22 21 22 22 22 20 19 19 19 19 18 16 14 12 11 10 10 9 9 7 6 5
12 12 11 11 11 12 12 11 10 8 6 5 3 2 2 1 1 1 2 3 0 1 3 6 5 4 8 11 9 5 5 6 7 8 6 2 3 5 4 1 2 3 2 2 2 3 4 3 2 0 4 9 17 24 27 25 24 25 26 27 27 26 25 24 22 20 20 20 21 21 20 19 17 17 17 16 15 14 13 12 10 11 11 10 8 7 6
11 12 13 13 13 13 11 8 6 4 3 3 2 1 1 0 0 1 1 1 2 2 3 5 7 7 9 11 10 7 7 6 6 6 4 1 2 4 3 0 1 3 1 3 4 4 4 3 1 3 6 13 22 27 28 26 26 26 27 27 26 23 22 22 21 20 19 19 19 20 21 20 18 17 16 15 13 13 12 11 11 12 11 10 9 8 7
13 14 14 14 12 10 6 3 2 2 2 2 2 1 1 1 0 0 1 1 3 4 4 7 10 11 10 9 8 7 7 6 4 4 3 2 2 3 3 2 2 2 2 3 4 3 2 2 3 5 10 17 25 30 29 26 25 26 27 25 23 21 21 21 20 19 18 17 16 18 20 19 17 16 16 14 13 13 12 10 11 12 12 9 9 8 7
14 13 12 10 7 5 3 1 1 1 1 0 1 2 1 1 1 0 1 2 3 5 8 12 15 12 7 5 5 6 5 5 4 4 3 2 2 3 2 1 0 1 3 3 2 1 2 3 4 9 15 21 26 31 32 28 27 27 27 25 23 23 22 20 19 18 18 17 16 18 20 19 16 16 16 15 13 13 12 11 12 13 11 8 8 8 8
10 8 7 4 2 1 2 0 1 0 2 2 2 3 3 3 3 3 3 5 7 10 14 18 19 15 8 5 5 4 3 3 4 2 1 2 3 3 1 2 1 2 3 2 1 1 2 3 4 13 20 24 28 32 33 30 29 27 26 25 25 23 22 21 20 19 19 19 19 21 21 19 17 15 15 14 13 12 12 11 12 12 10 8 8 9 9
6 4 4 3 1 1 1 1 0 0 2 3 3 4 6 7 6 4 5 8 13 18 19 20 20 16 9 5 4 3 3 4 3 1 1 3 3 1 1 3 2 2 2 1 1 3 3 4 10 21 27 29 30 31 31 30 29 27 26 26 26 25 24 24 23 22 22 21 21 20 20 18 15 14 14 14 13 11 10 10 11 12 10 9 9 8 8
4 3 4 3 0 1 1 1 2 2 2 4 6 8 9 9 7 7 8 12 18 22 21 19 18 15 9 5 4 3 3 4 3 1 2 3 2 1 1 2 1 1 2 2 4 5 4 7 18 29 32 32 32 32 31 30 29 27 27 27 27 28 28 26 24 23 22 21 20 19 18 16 15 15 16 15 14 12 10 9 10 11 10 10 9 8 8
4 3 2 1 1 1 1 2 3 3 3 5 6 6 8 8 6 6 9 15 20 23 21 17 14 10 5 4 4 2 2 4 3 0 1 2 2 1 2 2 1 2 2 4 5 4 5 15 29 36 35 34 35 35 33 31 29 27 27 28 29 29 28 25 23 23 22 21 19 18 17 17 17 17 16 14 13 12 11 9 9 10 10 10 10 9 8
3 3 2 1 1 2 3 3 2 3 5 7 7 6 8 9 6 5 10 17 21 22 20 17 12 7 1 2 3 2 2 2 2 1 2 3 2 1 1 1 2 3 3 3 4 5 10 24 36 39 37 36 36 34 31 30 28 27 27 28 29 29 26 24 22 22 21 19 18 17 17 18 17 16 15 14 13 13 11 8 7 8 10 11 12 11 9
3 2 1 1 1 2 2 1 1 2 3 8 11 10 9 10 8 7 12 20 23 21 16 12 9 5 1 2 3 2 1 0 2 2 2 1 2 2 2 2 3 4 4 5 5 8 16 29 38 40 39 37 35 32 30 29 28 27 27 28 28 27 24 22 21 21 19 18 17 17 18 18 16 15 15 15 13 13 12 10 8 8 9 11 11 11 9
1 1 2 3 4 4 3 2 3 4 4 7 14 15 13 13 11 10 15 22 23 17 10 6 4 4 3 2 2 1 1 1 2 2 1 2 2 3 3 3 5 6 6 7 8 11 19 31 40 42 41 38 34 32 30 29 28 28 28 28 27 25 24 22 21 20 19 17 17 17 17 16 14 14 14 15 14 13 13 12 10 10 10 9 8 9 10
2 2 3 4 6 7 6 4 5 6 5 6 13 17 17 15 12 13 20 25 21 13 7 6 5 4 2 1 2 2 2 2 2 1 2 2 2 3 4 6 6 7 9 10 11 14 23 34 40 42 41 39 35 32 29 28 27 28 28 27 26 25 23 21 20 21 19 18 17 17 16 15 14 13 13 14 15 14 12 11 12 12 11 10 8 8 9
Wind_Direction
309 311 310 307 310 316 313 308 315 341 357 359 351 355 354 354 84 131 155 156 151 145 108 331 350 258 272 292 293 276 276 286 299 311 315 331 16 16 16 45 56 21 32 70 72 79 73 54 77 123 87 55 326 333 343 337 104 88 122 194 142 114 97 101 245 318 317 298 332 26 59 78 78 46 25 39 96 134 139 169 169 120 125 117 81 85 233
312 311 310 314 316 314 307 301 317 347 2 359 345 349 354 17 88 126 165 165 154 102 156 153 273 285 292 294 287 275 258 252 268 283 307 333 5 50 9 359 37 20 30 60 58 73 79 48 34 88 100 10 334 353 7 18 106 72 150 178 148 149 114 99 111 43 350 320 333 6 12 40 67 28 348 347 21 104 126 123 80 108 175 146 119 140 197
313 308 303 313 314 311 304 295 315 335 346 0 336 329 347 48 90 129 168 180 204 275 196 140 125 282 307 297 282 286 269 243 240 245 294 342 52 98 19 322 50 30 35 54 38 42 80 90 28 56 65 6 341 359 9 29 79 81 111 135 125 114 100 108 128 152 178 194 208 223 337 24 46 20 355 1 25 81 124 122 87 125 186 111 119 148 133
312 304 295 306 311 309 303 295 315 318 322 17 322 279 288 80 113 129 164 193 220 247 251 198 154 222 268 291 276 256 250 255 240 229 281 2 28 72 27 358 57 35 42 61 35 27 52 75 81 85 56 23 334 354 6 24 46 60 77 87 103 100 68 75 111 134 179 187 196 197 127 80 37 357 359 8 10 33 96 121 142 162 145 48 173 153 135
312 306 300 305 311 308 301 304 313 307 307 331 250 243 236 173 245 144 149 198 217 242 266 238 183 235 198 301 286 258 252 272 310 337 37 27 28 54 35 23 44 45 60 81 45 16 34 47 60 76 60 89 324 1 16 22 17 29 54 46 67 104 56 25 72 75 80 103 77 63 76 80 65 35 13 20 35 54 76 96 157 147 126 72 222 152 136
310 305 300 305 311 303 298 310 310 317 317 208 188 223 223 198 267 162 146 184 199 218 247 209 206 252 260 286 292 284 307 31 37 335 6 30 23 49 33 7 16 67 95 107 80 20 32 34 44 71 40 38 343 4 13 16 19 34 44 27 63 111 60 12 76 68 44 46 64 78 87 83 67 59 42 33 47 64 72 64 1 122 137 166 161 139 122
310 309 306 306 303 294 306 327 322 333 303 184 173 220 235 189 314 193 149 198 208 198 209 190 199 231 218 232 274 255 5 50 53 287 31 25 9 55 74 1 9 47 81 103 93 50 90 60 29 92 58 48 52 29 0 357 18 38 52 31 58 99 61 27 88 76 43 23 29 76 92 88 64 52 47 44 55 65 68 64 56 64 90 128 127 113 94
312 314 315 307 297 292 308 333 356 350 184 174 178 227 244 114 11 27 52 329 254 229 231 176 170 219 201 212 261 252 56 51 49 9 59 75 10 53 89 69 47 58 71 84 86 162 153 130 123 158 118 77 103 112 200 310 11 26 48 28 27 75 124 219 73 72 32 13 37 70 85 87 68 43 31 35 49 56 54 56 63 67 78 98 104 102 93
313 305 306 301 293 295 303 322 53 129 163 175 193 227 241 271 350 16 16 323 258 237 232 148 132 203 209 211 255 316 31 72 93 38 30 81 110 108 117 104 66 54 59 68 83 173 146 121 126 149 131 103 103 104 162 183 63 25 31 27 24 78 116 120 65 82 9 341 78 80 76 79 66 36 15 17 34 55 52 40 39 75 120 118 110 109 118
314 292 287 291 291 299 309 323 151 159 167 189 206 215 244 259 288 350 212 279 278 210 174 108 123 205 207 197 244 1 255 235 112 68 23 41 90 129 132 112 69 52 55 58 71 134 96 84 87 111 101 88 86 85 77 81 98 113 97 48 39 110 125 134 105 99 140 237 195 42 45 65 54 8 349 353 26 74 69 42 24 26 115 127 122 126 127
319 298 271 275 290 299 314 329 178 170 176 200 207 210 250 308 31 238 148 318 284 222 139 126 158 205 195 170 122 58 73 49 74 114 58 19 73 116 116 103 87 72 69 73 72 75 80 77 82 95 94 83 76 72 66 57 48 73 134 94 51 105 123 136 131 109 150 221 315 19 47 95 22 322 331 356 83 82 75 58 36 35 65 98 101 105 113
321 309 266 258 291 303 312 328 194 184 188 196 202 212 222 119 1 317 66 22 282 314 61 212 211 224 186 154 118 61 84 74 75 111 118 78 93 107 99 91 95 112 103 80 71 89 97 82 80 85 81 74 68 61 58 49 28 32 80 114 112 102 103 109 89 99 134 152 21 55 180 203 88 46 66 92 98 91 84 71 50 54 74 93 99 102 108
322 318 262 251 299 306 309 337 238 201 199 197 198 206 212 211 240 293 1 344 264 285 313 272 274 196 142 123 90 75 94 88 83 93 98 97 102 99 86 91 113 119 107 77 59 90 102 69 57 63 46 44 56 50 44 41 30 30 43 75 113 120 111 98 72 76 118 93 46 136 173 131 93 86 84 95 96 89 79 61 42 46 70 97 106 107 111
325 325 254 257 286 296 310 336 339 216 203 196 190 195 214 228 237 272 339 337 264 253 231 316 343 85 110 102 89 84 69 63 73 80 83 93 96 90 97 114 121 120 124 115 59 68 88 63 46 42 3 4 32 30 19 26 37 39 30 28 86 116 119 103 70 56 121 109 86 101 115 142 199 226 175 86 41 280 68 69 48 33 74 111 119 119 124
325 307 231 237 251 274 318 312 346 177 183 182 184 195 215 234 246 263 278 301 299 294 21 15 323 117 95 80 92 92 54 33 58 60 54 76 92 101 112 118 119 126 136 123 72 54 81 101 93 73 19 52 92 1 344 359 11 31 40 44 63 80 111 130 114 78 108 108 110 121 143 202 191 170 232 349 349 272 237 106 91 21 101 132 136 132 140
325 288 226 219 223 225 287 291 70 120 157 168 185 205 221 234 247 261 271 292 324 336 1 353 318 134 90 67 74 89 90 81 71 42 15 17 62 107 117 117 118 125 121 94 68 66 73 93 123 136 162 181 180 187 35 23 336 339 12 51 61 56 63 95 96 100 122 118 125 145 178 200 152 159 275 349 2 280 238 97 119 178 146 153 148 143 156
325 274 222 212 194 177 226 201 141 141 139 156 186 209 221 229 239 252 262 261 248 344 11 15 68 109 93 74 69 74 85 97 93 91 74 313 316 99 107 110 111 112 104 71 41 62 79 88 103 103 152 211 145 133 144 98 62 331 342 23 45 40 31 55 91 122 124 104 107 113 141 179 115 162 303 344 357 248 202 126 190 162 150 163 161 157 169
316 247 214 202 175 173 199 155 145 131 135 163 190 209 222 229 229 231 232 231 256 353 37 62 93 91 84 104 112 97 99 96 89 92 95 319 329 58 94 105 96 87 87 85 71 72 82 89 103 110 141 281 84 120 159 107 98 329 329 25 51 40 31 61 108 115 93 88 107 101 37 296 272 301 314 339 15 180 202 221 164 121 120 147 160 160 171
303 227 206 186 168 173 163 145 138 123 141 174 202 222 228 221 212 209 215 231 261 31 60 77 91 91 91 102 106 103 101 91 91 104 95 23 8 100 95 82 79 59 45 72 92 96 88 84 137 121 112 350 12 109 113 113 151 285 7 80 91 60 36 48 84 113 110 97 96 96 77 289 297 307 323 7 139 202 197 130 130 122 115 124 139 142 151
293 219 198 176 168 165 145 145 134 128 151 184 221 240 223 208 203 209 230 325 347 53 73 77 82 90 96 99 102 107 103 85 95 122 128 150 162 130 106 86 85 55 47 67 80 86 111 129 226 89 103 111 98 104 107 128 141 140 110 114 117 109 97 81 76 117 119 92 82 123 162 268 289 262 298 350 50 154 131 116 118 124 121 119 118 122 133
279 214 190 173 168 155 149 148 131 138 163 197 247 241 193 191 221 254 268 307 325 20 74 81 81 86 93 91 90 100 103 93 111 141 140 138 149 143 150 186 184 117 102 125 113 73 133 148 171 79 103 114 37 102 131 125 64 13 72 117 110 328 133 157 213 234 124 127 154 163 115 12 240 164 128 96 122 138 133 120 114 117 123 124 121 120 129
268 208 184 174 167 151 154 151 130 141 171 213 311 128 146 157 215 228 201 177 149 55 81 89 89 92 100 101 90 90 97 95 113 146 147 140 142 156 154 149 131 124 154 132 110 128 155 132 141 120 100 93 81 93 111 118 114 330 6 55 57 50 100 105 91 62 82 96 116 119 89 84 102 114 114 115 125 136 138 128 121 121 125 127 126 126 129
265 200 183 175 166 156 156 145 124 129 154 166 93 117 123 127 141 149 144 131 109 102 102 102 99 93 98 110 112 107 105 102 108 147 165 155 132 114 142 138 114 119 153 138 133 152 146 130 144 133 106 107 110 90 58 70 124 192 18 50 96 120 108 96 92 105 92 70 70 88 89 90 99 107 113 120 127 133 134 127 124 127 130 128 127 130 133
253 196 184 175 167 160 152 138 123 118 114 100 96 102 113 128 137 135 133 133 128 125 115 91 85 82 85 102 113 110 98 92 95 140 208 194 170 135 149 153 141 143 149 145 141 130 115 109 117 101 100 118 105 104 91 74 107 129 96 85 356 32 91 91 103 138 124 78 77 91 92 97 104 107 111 118 123 127 127 124 124 128 130 129 129 130 131
220 190 183 176 171 160 146 135 125 115 107 104 103 103 112 130 142 141 140 149 143 129 114 67 62 67 78 93 101 98 84 70 61 59 95 202 205 194 174 157 150 153 146 145 147 130 105 90 100 100 100 20 49 104 128 128 150 143 120 155 257 97 98 96 89 88 90 101 114 107 99 104 111 114 117 120 121 123 123 123 126 129 128 128 129 128 127
199 186 182 178 170 157 145 134 119 112 115 113 108 107 116 130 142 149 149 143 123 96 91 78 65 73 93 100 99 98 90 80 74 74 81 92 114 151 152 137 128 132 131 131 132 117 95 77 91 98 80 46 76 96 101 100 117 109 79 131 145 117 105 105 108 103 89 99 118 113 100 97 106 114 121 124 124 124 124 125 128 129 127 127 126 124 123
190 182 182 178 167 154 144 131 114 115 125 118 105 105 117 126 137 148 148 144 121 80 83 94 77 89 104 103 102 107 100 89 82 78 82 94 106 121 129 126 123 124 120 113 107 97 85 74 72 74 87 91 86 80 75 87 97 88 63 56 91 100 112 122 120 121 123 135 142 132 111 103 114 120 124 127 127 126 125 127 129 127 126 127 125 123 123
185 181 182 177 164 153 143 127 112 120 131 124 109 107 115 120 133 150 155 150 124 117 129 113 88 95 97 86 97 115 107 90 89 89 91 105 116 120 124 125 121 116 110 102 92 78 72 85 91 86 94 93 83 62 49 71 75 63 357 330 69 123 157 164 136 126 141 150 151 139 122 121 128 129 129 130 129 127 126 128 128 125 124 125 124 124 127
183 183 182 173 162 153 142 126 116 121 132 130 116 110 116 121 131 149 158 147 129 124 117 97 79 79 69 57 92 123 116 98 98 102 107 115 117 117 120 119 113 108 103 97 90 78 70 82 88 73 66 83 95 78 44 57 61 16 338 66 102 122 150 147 124 116 129 146 148 137 128 129 133 133 130 127 127 127 128 128 126 123 122 121 119 120 122
182 182 179 171 162 153 142 132 123 124 132 134 123 113 113 117 129 147 153 142 132 123 108 93 85 75 66 75 96 112 118 115 107 105 108 111 110 111 115 113 107 105 101 94 88 82 68 64 69 66 64 77 98 103 72 87 89 4 38 97 111 120 127 126 124 126 135 144 141 132 129 130 131 128 126 125 128 130 129 129 127 125 123 120 117 115 114
181 180 176 169 162 154 147 139 129 126 136 143 136 120 105 103 131 151 149 136 131 124 108 96 95 87 76 80 91 102 110 114 109 103 102 103 103 106 111 109 104 100 96 87 79 71 54 51 62 64 63 71 83 92 100 99 90 24 83 105 115 121 120 119 122 125 131 136 134 127 126 128 130 130 130 130 132 132 131 131 130 126 124 122 119 117 117
179 178 174 168 163 158 153 145 131 132 145 151 141 121 114 116 139 152 145 136 135 129 112 94 87 84 67 65 82 97 107 111 109 103 97 96 100 102 102 98 94 92 89 83 72 53 42 66 76 68 62 71 84 86 70 75 97 144 120 114 118 123 123 123 124 126 131 136 133 128 130 136 136 132 130 130 130 130 131 132 132 131 130 129 126 124 122
179 178 174 169 166 164 159 148 139 144 155 152 135 123 120 125 144 151 145 140 136 125 105 88 84 89 88 79 87 97 105 106 103 97 88 88 96 98 92 86 86 82 75 72 71 64 66 80 83 76 69 76 87 87 62 64 111 130 123 121 125 128 126 126 129 131 136 139 134 129 132 137 133 127 125 126 126 127 130 133 136 137 139 138 135 132 130
179 178 175 172 171 170 163 150 145 157 163 152 138 126 117 123 144 150 149 145 133 110 89 79 83 81 62 72 83 95 102 102 98 89 76 79 92 93 83 75 75 70 61 66 81 87 77 76 81 81 71 69 77 83 82 103 122 126 126 128 132 133 131 132 135 137 138 136 129 123 125 129 129 128 128 128 127 128 132 135 137 139 139 139 140 142 144
177 177 173 171 169 168 162 149 143 152 158 151 141 125 115 122 141 150 155 152 129 104 83 74 84 94 89 59 55 89 101 99 96 91 85 82 83 83 78 70 64 60 62 71 77 74 59 63 77 82 56 38 55 74 150 147 134 131 133 137 140 140 139 140 141 139 136 131 128 127 129 131 132 131 132 133 134 137 139 139 139 139 137 136 138 144 153
171 168 165 163 161 158 155 148 140 139 144 147 141 123 110 117 132 148 163 162 131 104 101 94 92 114 125 114 106 115 109 101 93 93 94 89 79 74 74 73 65 56 59 60 55 49 48 57 73 82 23 31 71 145 155 147 142 140 143 148 149 147 144 144 144 142 139 136 136 138 138 136 135 135 138 140 141 143 145 146 145 144 141 139 141 144 143
161 158 156 156 154 150 146 143 139 136 140 147 144 124 109 115 126 138 156 159 138 124 126 118 114 146 141 132 131 126 119 113 86 77 81 84 80 69 66 71 79 64 52 42 29 41 54 60 75 84 25 58 140 153 152 149 149 151 152 154 154 150 148 149 149 148 148 148 149 150 148 144 143 146 149 152 153 155 154 152 149 145 142 143 149 148 137
154 153 152 152 149 144 140 142 141 136 138 145 144 128 112 116 122 123 125 130 136 142 137 129 135 147 130 115 109 120 137 129 72 76 77 75 75 59 49 60 76 62 52 27 3 35 49 49 61 69 39 105 147 154 156 156 157 159 158 159 158 156 155 157 158 157 158 158 161 163 163 161 161 161 160 160 161 160 157 152 147 145 144 144 146 147 141
149 149 150 151 146 138 138 144 140 134 137 143 142 128 101 101 108 107 69 84 119 136 135 132 140 138 126 112 93 107 136 122 75 65 64 59 65 63 54 74 75 65 71 65 349 41 56 19 15 67 75 122 156 162 164 164 164 164 165 165 163 161 161 161 161 162 163 161 162 164 165 163 164 167 167 166 163 163 163 160 152 150 152 152 146 140 139
147 147 144 143 140 135 137 141 138 134 137 139 128 99 78 75 81 144 93 64 81 138 146 145 141 133 136 137 122 104 125 130 112 112 111 78 79 104 101 95 103 82 69 345 309 77 94 66 34 91 145 193 176 167 166 168 169 171 171 170 167 166 165 164 164 166 165 161 160 162 161 157 157 160 164 166 166 166 168 166 158 157 163 166 161 148 138
147 144 141 141 140 138 138 138 134 130 130 120 91 67 85 76 14 55 92 82 50 209 151 140 136 133 143 145 137 118 121 127 121 120 115 73 72 98 97 110 125 92 62 232 183 98 85 84 69 145 205 191 176 168 165 164 165 166 167 167 165 165 166 166 168 172 172 169 169 170 169 166 165 164 164 165 164 163 163 166 170 173 176 179 180 173 161
148 146 144 141 138 138 136 130 116 104 103 99 75 20 327 101 87 68 78 120 173 165 143 142 144 142 141 140 134 126 126 127 119 113 106 71 96 106 95 27 84 78 151 188 142 76 59 98 134 249 214 183 174 170 167 164 164 164 163 165 166 167 169 171 174 176 178 178 179 178 174 172 172 170 166 162 162 165 169 173 179 184 184 184 185 180 173
143 140 138 135 133 133 130 103 68 66 66 71 75 27 333 346 27 3 303 199 150 125 118 133 138 136 134 133 127 122 125 128 117 93 92 113 129 97 66 40 59 106 158 148 98 64 87 160 199 214 191 178 176 174 171 170 172 169 166 167 171 173 175 177 178 181 184 185 183 179 174 171 168 166 165 163 164 172 178 180 181 184 184 180 177 173 166
138 134 132 129 125 125 127 84 45 92 111 95 126 143 162 231 257 187 151 170 161 140 141 148 147 141 133 122 116 116 125 129 105 75 83 114 91 63 71 88 238 149 137 105 58 81 194 221 213 185 174 174 178 177 175 176 177 173 171 172 174 175 178 182 187 190 190 186 177 170 169 168 164 163 169 174 176 178 181 180 178 180 179 172 171 172 166
138 130 124 113 72 89 139 201 326 310 180 189 174 149 158 186 207 195 171 165 155 147 151 154 150 140 123 110 115 119 125 118 99 72 102 115 58 42 124 173 146 91 103 79 49 160 222 261 199 173 172 175 177 177 179 180 179 176 175 177 178 180 182 183 181 179 176 170 165 163 166 167 164 163 171 178 179 178 180 178 177 178 177 171 170 174 172
140 119 113 109 24 345 109 108 328 231 191 195 189 176 176 184 184 165 151 154 154 152 153 153 145 133 117 102 112 111 93 99 97 43 45 97 82 37 172 144 96 66 73 74 183 206 238 234 186 174 173 175 176 177 179 179 176 175 176 176 178 181 182 176 170 166 163 162 162 164 166 167 165 164 168 174 175 178 182 183 182 183 182 178 179 182 183
142 108 93 94 44 323 7 187 215 224 200 185 186 185 182 177 158 138 147 161 161 156 152 145 137 131 118 97 100 99 71 79 85 355 17 90 108 322 30 85 117 171 148 174 217 241 250 202 181 175 172 171 172 174 175 174 174 174 172 169 171 175 176 172 167 164 161 161 164 166 168 170 170 169 170 174 178 182 185 187 191 194 191 183 180 182 184
149 125 93 99 161 194 202 211 226 231 203 193 196 194 185 176 152 134 157 168 164 158 153 144 132 122 101 75 89 91 43 59 80 33 18 85 106 29 27 37 278 248 176 179 209 237 209 182 178 174 170 168 169 172 173 174 175 175 172 170 170 172 171 169 167 165 163 164 166 168 170 172 173 174 176 178 181 185 186 188 199 206 200 188 182 182 185
139 135 140 157 195 229 240 233 236 242 220 204 198 194 193 192 177 141 155 165 163 159 156 146 130 119 92 43 79 79 38 51 89 70 29 59 102 148 117 131 228 252 238 207 211 217 192 180 176 173 170 169 170 173 175 176 177 176 174 171 170 169 168 168 167 166 167 170 172 173 172 171 172 177 179 178 179 181 178 173 184 203 203 197 192 190 188
135 156 205 214 214 254 277 218 218 279 240 195 186 188 196 196 185 164 164 166 159 151 144 135 120 109 92 52 62 53 322 231 126 104 76 108 177 157 128 171 215 230 231 218 214 205 187 177 173 172 172 172 173 175 176 175 174 173 171 169 169 169 169 169 169 169 170 172 173 173 173 172 173 176 179 178 178 178 172 163 164 182 193 195 197 199 199
157 231 253 231 229 255 282 256 238 267 262 190 180 183 188 189 188 182 174 167 157 144 134 132 115 84 65 67 81 124 179 138 104 102 160 216 180 136 146 210 231 226 211 205 208 201 186 176 174 174 174 174 175 177 176 174 174 173 171 170 170 170 168 168 170 171 171 172 172 173 174 174 175 179 183 185 183 180 177 174 172 175 181 188 197 209 217
188 252 279 266 257 265 278 276 266 276 270 198 178 179 185 191 191 180 172 167 160 147 134 132 114 86 82 146 155 133 111 89 76 119 209 221 194 167 186 214 226 219 209 205 203 193 183 177 176 178 178 178 179 179 177 175 176 177 174 172 172 172 170 171 174 174 174 177 180 179 176 175 174 175 179 183 185 187 191 193 190 187 189 193 197 207 219